Hourly Weather Slobyrevo

Today, 12 July, Sunday

Time Temperature Precipitation Wind Pressure Humidity
00:00 +15°C° 0 mm 2 mps 745 mmHg 91%
01:00 +14°C° 0 mm 2 mps 745 mmHg 91%
02:00 +13°C° 0 mm 1 mps 745 mmHg 93%
03:00 +13°C° 0.2 mm 1 mps 745 mmHg 92%
04:00 +14°C° 0.2 mm 1 mps 745 mmHg 92%
05:00 +14°C° 0.2 mm 1 mps 745 mmHg 91%
06:00 +14°C° 1.6 mm 2 mps 745 mmHg 93%
07:00 +14°C° 1.6 mm 2 mps 745 mmHg 94%
08:00 +13°C° 0 mm 2 mps 745 mmHg 97%
09:00 +13°C° 2.1 mm 2 mps 745 mmHg 97%
10:00 +13°C° 2.1 mm 2 mps 745 mmHg 97%
11:00 +12°C° 2.1 mm 3 mps 745 mmHg 97%
12:00 +12°C° 0.2 mm 3 mps 745 mmHg 96%
13:00 +12°C° 0.2 mm 3 mps 745 mmHg 95%
14:00 +12°C° 0 mm 3 mps 745 mmHg 94%
15:00 +13°C° 0 mm 3 mps 745 mmHg 93%
16:00 +13°C° 0 mm 3 mps 745 mmHg 91%
17:00 +14°C° 0 mm 2 mps 745 mmHg 89%
18:00 +14°C° 0 mm 2 mps 745 mmHg 90%
19:00 +13°C° 0 mm 2 mps 745 mmHg 92%
20:00 +13°C° 0 mm 2 mps 745 mmHg 94%
21:00 +12°C° 0 mm 2 mps 745 mmHg 95%
22:00 +12°C° 0 mm 2 mps 745 mmHg 95%
23:00 +12°C° 0 mm 2 mps 745 mmHg 96%

Tomorrow, 13 July, Monday

Time Temperature Precipitation Wind Pressure Humidity
00:00 +10°C° 0 mm 2 mps 745 mmHg 95%
01:00 +10°C° 0 mm 2 mps 745 mmHg 94%
02:00 +10°C° 0 mm 2 mps 745 mmHg 93%
03:00 +10°C° 0.1 mm 2 mps 744 mmHg 92%
04:00 +10°C° 0.1 mm 2 mps 744 mmHg 91%
05:00 +12°C° 0.1 mm 2 mps 744 mmHg 90%
06:00 +12°C° 0.3 mm 2 mps 744 mmHg 92%
07:00 +12°C° 0.3 mm 2 mps 744 mmHg 95%
08:00 +12°C° 0.3 mm 2 mps 744 mmHg 97%
09:00 +12°C° 0.8 mm 2 mps 744 mmHg 97%
10:00 +11°C° 0.8 mm 3 mps 743 mmHg 97%
11:00 +12°C° 0.8 mm 3 mps 743 mmHg 97%
12:00 +12°C° 0.8 mm 3 mps 743 mmHg 97%
13:00 +12°C° 0.8 mm 3 mps 743 mmHg 96%
14:00 +13°C° 0.8 mm 2 mps 743 mmHg 96%
15:00 +13°C° 0.3 mm 2 mps 743 mmHg 96%
16:00 +13°C° 0.3 mm 2 mps 743 mmHg 96%
17:00 +13°C° 0.3 mm 2 mps 742 mmHg 95%
18:00 +13°C° 0 mm 2 mps 742 mmHg 95%
19:00 +13°C° 0 mm 2 mps 742 mmHg 95%
20:00 +13°C° 0 mm 2 mps 742 mmHg 95%
21:00 +13°C° 0 mm 2 mps 742 mmHg 95%
22:00 +13°C° 0 mm 2 mps 742 mmHg 96%
23:00 +12°C° 0 mm 2 mps 742 mmHg 96%

Day after tomorrow, 14 July, Tuesday

Time Temperature Precipitation Wind Pressure Humidity
00:00 +12°C° 0 mm 2 mps 742 mmHg 96%
01:00 +12°C° 0 mm 2 mps 742 mmHg 95%
02:00 +12°C° 0 mm 2 mps 742 mmHg 95%
03:00 +12°C° 0 mm 2 mps 742 mmHg 94%
04:00 +11°C° 0 mm 3 mps 741 mmHg 93%
05:00 +12°C° 0 mm 3 mps 741 mmHg 92%
06:00 +13°C° 0 mm 3 mps 741 mmHg 89%
07:00 +14°C° 0 mm 3 mps 741 mmHg 85%
08:00 +15°C° 0 mm 4 mps 741 mmHg 82%
09:00 +17°C° 0 mm 4 mps 741 mmHg 75%
10:00 +19°C° 0 mm 4 mps 741 mmHg 68%
11:00 +20°C° 0 mm 5 mps 741 mmHg 61%
12:00 +21°C° 0 mm 5 mps 741 mmHg 61%
13:00 +21°C° 0 mm 4 mps 741 mmHg 60%
14:00 +21°C° 0 mm 4 mps 740 mmHg 59%
15:00 +21°C° 0 mm 4 mps 740 mmHg 62%
16:00 +20°C° 0 mm 4 mps 740 mmHg 66%
17:00 +19°C° 0 mm 3 mps 740 mmHg 70%
18:00 +18°C° 0 mm 3 mps 739 mmHg 72%
19:00 +17°C° 0 mm 3 mps 739 mmHg 74%
20:00 +17°C° 0 mm 3 mps 739 mmHg 76%
21:00 +16°C° 0 mm 3 mps 738 mmHg 73%
22:00 +15°C° 0 mm 4 mps 738 mmHg 70%
23:00 +15°C° 0 mm 4 mps 738 mmHg 67%

15 July, Wednesday

Time Temperature Precipitation Wind Pressure Humidity
00:00 +14°C° 0.6 mm 5 mps 737 mmHg 73%
01:00 +14°C° 0.6 mm 5 mps 737 mmHg 79%
02:00 +13°C° 0.6 mm 6 mps 737 mmHg 85%
03:00 +11°C° 1.4 mm 6 mps 737 mmHg 87%
04:00 +10°C° 1.4 mm 6 mps 737 mmHg 90%
05:00 +10°C° 1.4 mm 6 mps 737 mmHg 92%
06:00 +10°C° 3.1 mm 6 mps 737 mmHg 94%
07:00 +10°C° 3.1 mm 6 mps 737 mmHg 95%
08:00 +10°C° 3.1 mm 6 mps 737 mmHg 96%
09:00 +10°C° 1.6 mm 6 mps 737 mmHg 96%
10:00 +10°C° 1.6 mm 6 mps 737 mmHg 96%
11:00 +10°C° 1.6 mm 6 mps 737 mmHg 96%
12:00 +10°C° 0.6 mm 7 mps 737 mmHg 95%
13:00 +11°C° 0.6 mm 7 mps 737 mmHg 95%
14:00 +11°C° 0.6 mm 7 mps 737 mmHg 95%
15:00 +11°C° 0.3 mm 7 mps 737 mmHg 94%
16:00 +11°C° 0.3 mm 7 mps 737 mmHg 94%
17:00 +11°C° 0.3 mm 6 mps 737 mmHg 93%
18:00 +11°C° 0.4 mm 6 mps 738 mmHg 93%
19:00 +11°C° 0.4 mm 6 mps 738 mmHg 93%
20:00 +11°C° 0.4 mm 6 mps 738 mmHg 94%
21:00 +11°C° 0.1 mm 6 mps 738 mmHg 94%
22:00 +11°C° 0.1 mm 6 mps 738 mmHg 93%
23:00 +12°C° 0.1 mm 5 mps 737 mmHg 93%

16 July, Thursday

Time Temperature Precipitation Wind Pressure Humidity
00:00 +12°C° 0 mm 5 mps 737 mmHg 92%
01:00 +12°C° 0 mm 5 mps 737 mmHg 92%
02:00 +11°C° 0 mm 4 mps 737 mmHg 91%
03:00 +12°C° 0.1 mm 4 mps 737 mmHg 92%
04:00 +12°C° 0.1 mm 4 mps 737 mmHg 92%
05:00 +12°C° 0.1 mm 4 mps 737 mmHg 92%
06:00 +12°C° 0.1 mm 4 mps 737 mmHg 92%
07:00 +12°C° 0.1 mm 5 mps 737 mmHg 93%
08:00 +12°C° 0.1 mm 5 mps 738 mmHg 93%
09:00 +12°C° 0.2 mm 5 mps 738 mmHg 94%
10:00 +12°C° 0.2 mm 5 mps 738 mmHg 95%
11:00 +12°C° 0.2 mm 5 mps 738 mmHg 95%
12:00 +13°C° 0.1 mm 5 mps 738 mmHg 95%
13:00 +13°C° 0.1 mm 5 mps 738 mmHg 94%
14:00 +14°C° 0.1 mm 5 mps 738 mmHg 94%
15:00 +14°C° 0.1 mm 5 mps 738 mmHg 94%
16:00 +14°C° 0.1 mm 4 mps 738 mmHg 95%
17:00 +13°C° 0.1 mm 4 mps 738 mmHg 95%
18:00 +13°C° 0.1 mm 4 mps 739 mmHg 96%
19:00 +13°C° 0.1 mm 4 mps 739 mmHg 96%
20:00 +13°C° 0.1 mm 4 mps 739 mmHg 96%
21:00 +13°C° 0.1 mm 3 mps 739 mmHg 97%
22:00 +13°C° 0.1 mm 3 mps 739 mmHg 97%
23:00 +13°C° 0.1 mm 3 mps 739 mmHg 97%

17 July, Friday

Time Temperature Precipitation Wind Pressure Humidity
00:00 +13°C° 0 mm 3 mps 739 mmHg 97%
01:00 +12°C° 0 mm 3 mps 739 mmHg 97%
02:00 +12°C° 0 mm 3 mps 739 mmHg 97%
03:00 +12°C° 0 mm 3 mps 739 mmHg 96%
04:00 +12°C° 0 mm 3 mps 739 mmHg 96%
05:00 +12°C° 0 mm 3 mps 739 mmHg 96%
06:00 +13°C° 0 mm 3 mps 739 mmHg 94%
07:00 +13°C° 0 mm 3 mps 739 mmHg 92%
08:00 +14°C° 0 mm 3 mps 739 mmHg 89%
09:00 +16°C° 0 mm 3 mps 739 mmHg 87%
10:00 +16°C° 0 mm 3 mps 739 mmHg 85%
11:00 +17°C° 0 mm 3 mps 740 mmHg 83%
12:00 +17°C° 0 mm 3 mps 740 mmHg 82%
13:00 +17°C° 0 mm 3 mps 740 mmHg 82%
14:00 +17°C° 0 mm 3 mps 740 mmHg 82%
15:00 +17°C° 0 mm 2 mps 740 mmHg 82%
16:00 +17°C° 0 mm 2 mps 740 mmHg 81%
17:00 +18°C° 0 mm 2 mps 740 mmHg 81%
18:00 +17°C° 0 mm 2 mps 740 mmHg 85%
19:00 +15°C° 0 mm 1 mps 740 mmHg 89%
20:00 +14°C° 0 mm 1 mps 741 mmHg 93%
21:00 +14°C° 0 mm 1 mps 741 mmHg 94%
22:00 +13°C° 0 mm 1 mps 741 mmHg 95%
23:00 +12°C° 0 mm 1 mps 741 mmHg 96%
Show more